GW5289 Weather Reports


time (UTC)temp
C
wind
direction
speed
KPH
gust
KPH
rain 1hr
cm
rain 24hr
cm
rain mn
cm
humidity
%
barometer
mb
20260510230011 25 142 1.6 6.4 0.00 0.00 0.00 47 1012.8
20260510224510 26 180 4.8 11.3 0.00 0.00 0.00 44 1012.8
20260510223013 26 121 3.2 16.1 0.00 0.00 0.00 41 1012.8
20260510221516 27 143 3.2 16.1 0.00 0.00 0.00 37 1012.8
20260510220005 29 166 0.0 9.7 0.00 0.00 0.00 30 1012.8
20260510214511 28 124 3.2 8.0 0.00 0.00 0.00 30 1012.8
20260510213035 29 128 3.2 12.9 0.00 0.00 0.00 28 1012.8
20260510211526 29 134 3.2 9.7 0.00 0.00 0.00 28 1012.8
20260510210034 30 257 4.8 11.3 0.00 0.00 0.00 28 1012.7
20260510204508 29 266 4.8 9.7 0.00 0.00 0.00 29 1012.7
20260510203010 30 1 1.6 9.7 0.00 0.00 0.00 30 1012.6
20260510201519 29 278 4.8 11.3 0.00 0.00 0.00 29 1012.9
20260510200022 30 335 3.2 9.7 0.00 0.00 0.00 27 1012.9
20260510194509 30 252 4.8 12.9 0.00 0.00 0.00 28 1012.9
20260510193012 29 333 3.2 8.0 0.00 0.00 0.00 29 1013.2
20260510191512 30 321 1.6 9.7 0.00 0.00 0.00 25 1013.4
20260510190021 29 277 4.8 9.7 0.00 0.00 0.00 28 1013.5
20260510184525 30 168 3.2 8.0 0.00 0.00 0.00 28 1013.6
20260510183010 29 342 4.8 12.9 0.00 0.00 0.00 28 1013.6
20260510181539 29 343 3.2 6.4 0.00 0.00 0.00 29 1013.6
20260510180017 28 25 1.6 9.7 0.00 0.00 0.00 29 1013.8
20260510174503 29 339 4.8 9.7 0.00 0.00 0.00 28 1013.7
20260510173008 28 340 4.8 9.7 0.00 0.00 0.00 31 1013.9
20260510171510 28 333 3.2 9.7 0.00 0.00 0.00 30 1014.0
20260510170002 28 317 1.6 9.7 0.00 0.00 0.00 35 1014.0
20260510164503 27 132 3.2 6.4 0.00 0.00 0.00 33 1014.0
20260510163004 28 251 0.0 6.4 0.00 0.00 0.00 38 1014.0
20260510161508 27 166 1.6 8.0 0.00 0.00 0.00 39 1014.2
20260510160016 26 217 3.2 9.7 0.00 0.00 0.00 40 1014.4
20260510154504 27 335 1.6 6.4 0.00 0.00 0.00 41 1014.7
20260510153004 27 245 1.6 6.4 0.00 0.00 0.00 45 1014.9
20260510151508 26 78 1.6 9.7 0.00 0.00 0.00 45 1014.8
20260510150014 25 6 3.2 8.0 0.00 0.00 0.00 44 1014.7
20260510144517 25 13 3.2 4.8 0.00 0.00 0.00 44 1014.6
20260510143003 25 11 1.6 4.8 0.00 0.00 0.00 49 1014.5
20260510141507 25 139 0.0 4.8 0.00 0.00 0.00 53 1014.6
20260510140012 23 14 0.0 6.4 0.00 0.00 0.00 58 1014.6
20260510134514 22 244 0.0 6.4 0.00 0.00 0.00 62 1014.7
20260510133004 22 260 3.2 8.0 0.00 0.00 0.00 62 1014.6
20260510131503 21 359 1.6 6.4 0.00 0.00 0.00 67 1014.5
20260510130006 21 259 1.6 4.8 0.00 0.00 0.00 69 1014.6
20260510124514 20 254 1.6 4.8 0.00 0.00 0.00 71 1014.4
20260510123017 20 14 0.0 3.2 0.00 0.00 0.00 78 1014.3
20260510121504 18 282 0.0 3.2 0.00 0.00 0.00 83 1014.2
20260510120008 16 282 0.0 3.2 0.00 0.00 0.00 93 1013.9
20260510114512 14 282 0.0 0.0 0.00 0.00 0.00 95 1013.7
20260510113015 13 282 0.0 3.2 0.00 0.00 0.00 95 1013.5
20260510111519 13 302 0.0 3.2 0.00 0.00 0.00 95 1013.0
20260510110009 12 302 0.0 3.2 0.00 0.00 0.00 95 1012.7
20260510104507 12 188 0.0 3.2 0.00 0.00 0.00 95 1012.7
20260510103012 12 188 0.0 0.0 0.00 0.00 0.00 95 1012.5
20260510101519 12 188 0.0 0.0 0.00 0.00 0.00 94 1012.2
20260510100022 12 188 0.0 0.0 0.00 0.00 0.00 94 1012.1
20260510094506 13 188 0.0 0.0 0.00 0.00 0.00 94 1011.8
20260510093008 13 188 0.0 0.0 0.00 0.00 0.00 94 1011.7
20260510091517 13 188 0.0 0.0 0.00 0.00 0.00 94 1011.7
20260510090034 13 188 0.0 1.6 0.00 0.00 0.00 94 1011.6
20260510084530 13 188 0.0 0.0 0.00 0.00 0.00 93 1011.5
20260510083008 13 188 0.0 3.2 0.00 0.00 0.00 93 1011.3
20260510081523 14 188 0.0 3.2 0.00 0.00 0.00 93 1011.4
20260510080020 14 188 0.0 3.2 0.00 0.00 0.00 92 1011.3
20260510074523 14 188 0.0 3.2 0.00 0.00 0.00 92 1011.2
20260510073024 14 188 0.0 0.0 0.00 0.00 0.00 92 1011.1
20260510071510 14 188 0.0 3.2 0.00 0.00 0.00 91 1011.1
20260510070015 15 188 0.0 0.0 0.00 0.00 0.00 90 1011.1
20260510064520 15 188 0.0 0.0 0.00 0.00 0.00 89 1011.1
20260510063026 15 188 0.0 3.2 0.00 0.00 0.00 86 1011.1
20260510061538 16 188 0.0 3.2 0.00 0.00 0.00 84 1011.4
20260510060012 16 174 0.0 3.2 0.00 0.00 0.00 83 1011.4
20260510054506 17 288 0.0 3.2 0.00 0.00 0.00 82 1011.4
20260510053003 17 274 0.0 3.2 0.00 0.00 0.00 82 1011.6
20260510051506 17 254 0.0 3.2 0.00 0.00 0.00 81 1011.6
20260510050013 17 217 0.0 3.2 0.00 0.00 0.00 80 1011.6
20260510044504 17 252 0.0 3.2 0.00 0.00 0.00 79 1011.5
20260510043004 17 287 0.0 3.2 0.00 0.00 0.00 78 1011.4
20260510041504 17 219 0.0 3.2 0.00 0.00 0.00 78 1011.4
20260510040006 17 254 0.0 3.2 0.00 0.00 0.00 77 1011.3
20260510034512 17 221 0.0 3.2 0.00 0.00 0.00 76 1011.2
20260510033003 18 244 1.6 4.8 0.00 0.00 0.00 75 1011.2
20260510031504 18 244 1.6 4.8 0.00 0.00 0.00 73 1011.0
20260510030006 18 244 1.6 3.2 0.00 0.00 0.00 72 1011.0
20260510024517 18 255 3.2 4.8 0.00 0.00 0.00 71 1011.0
20260510023016 19 189 1.6 6.4 0.00 0.00 0.00 69 1010.8
20260510021504 19 203 1.6 6.4 0.00 0.00 0.00 69 1010.7
20260510020008 19 226 1.6 4.8 0.00 0.00 0.00 69 1010.4
20260510014509 19 227 0.0 3.2 0.00 0.00 0.00 69 1010.4
20260510013014 19 207 0.0 3.2 0.00 0.00 0.00 69 1010.4
20260510011532 19 221 0.0 3.2 0.00 0.00 0.00 68 1010.3
20260510010005 20 200 0.0 3.2 0.00 0.00 0.00 67 1010.2
20260510004510 20 205 0.0 3.2 0.00 0.00 0.00 65 1010.1
20260510003022 20 219 0.0 3.2 0.00 0.00 0.00 63 1009.9
20260510001517 21 253 0.0 3.2 0.00 0.00 0.00 59 1009.7
20260510000022 22 241 0.0 3.2 0.00 0.00 0.00 57 1009.5
20260509234517 22 189 1.6 6.4 0.00 0.00 0.00 56 1009.3
20260509233017 23 210 0.0 3.2 0.00 0.00 0.00 54 1009.4
20260509231528 23 165 1.6 4.8 0.00 0.00 0.00 52 1009.4